time_stamp(utc),avg(mph),gust(mph),direction(deg),12m_air_temp(f),sonic_u(cm/s),sonic_v(cm/s),sonic_w(cm/s),pressure,2m_air_temp(f),pyranometer(W/m^2)
"2017-02-19 00:00:21+00",13.4,14.4,,49.6,-425,-429,0,1006.76,48.1,0
"2017-02-19 00:05:21+00",13.0,14.0,,49.5,-405,-438,-2,1006.77,48,0
"2017-02-19 00:10:21+00",13.1,14.1,,49.7,-373,-459,-4,1006.73,48.2,0
"2017-02-19 00:15:21+00",12.5,13.5,,49.7,-359,-447,-2,1006.7,48.3,0
"2017-02-19 00:20:21+00",10.8,12.8,,49.4,-280,-401,1,1006.81,48.2,0
"2017-02-19 00:25:21+00",13.1,14.1,,49.3,-325,-487,-7,1006.74,48.1,0
"2017-02-19 00:30:21+00",12.9,14.9,,49.5,-335,-479,14,1006.62,48.2,0
"2017-02-19 00:35:21+00",13.4,14.4,,48.7,-297,-503,-13,1006.5,48,0
"2017-02-19 00:40:21+00",12.2,14.2,,48.7,-274,-463,0,1006.51,47.7,0
"2017-02-19 00:45:21+00",12.9,14.9,,48.8,-334,-473,-3,1006.46,47.8,0
"2017-02-19 00:50:21+00",14.4,15.4,,48.7,-383,-530,-1,1006.36,47.7,0
"2017-02-19 00:55:21+00",15.3,17.3,,48.5,-420,-547,-10,1006.24,47.6,0
"2017-02-19 01:00:21+00",14.1,16.1,,48.3,-390,-514,2,1006.21,47.5,0
"2017-02-19 01:05:21+00",14.2,16.2,,48.2,-402,-502,-5,1006.18,47.4,0
"2017-02-19 01:10:21+00",13.1,15.1,,48.3,-382,-456,4,1006.12,47.4,0
"2017-02-19 01:15:21+00",13.5,15.5,,48.1,-418,-443,0,1006.22,47.3,0
"2017-02-19 01:20:21+00",13.9,14.9,,48,-431,-444,-4,1006.19,47.1,0
"2017-02-19 01:25:21+00",13.1,16.1,,48,-413,-416,0,1006.17,47,0
"2017-02-19 01:30:21+00",12.7,13.7,,48.1,-405,-397,4,1006.16,47,0
"2017-02-19 01:35:21+00",11.6,12.6,,47.9,-366,-365,1,1006.17,46.9,0
"2017-02-19 01:40:21+00",12.2,15.2,,47.5,-375,-405,3,1006.03,46.7,0
"2017-02-19 01:45:21+00",13.1,14.1,,47.7,-406,-425,-7,1005.98,46.6,0
"2017-02-19 01:50:21+00",13.3,15.3,,47.9,-416,-434,9,1005.9,46.7,0
"2017-02-19 01:55:21+00",15.3,17.3,,48.3,-482,-490,0,1005.82,46.9,0
"2017-02-19 02:00:21+00",15.1,17.1,,48.4,-456,-513,5,1005.81,47.1,0
"2017-02-19 02:05:21+00",14.9,15.9,,48.3,-462,-479,5,1005.82,47.2,0
"2017-02-19 02:10:21+00",15.0,17.0,,48.3,-470,-488,-2,1005.83,47.1,0
"2017-02-19 02:15:21+00",15.3,17.3,,48.4,-480,-492,1,1005.77,47.1,0
"2017-02-19 02:20:21+00",15.5,17.5,,48.6,-479,-512,-2,1005.82,47.2,0
"2017-02-19 02:25:21+00",14.7,15.7,,48.7,-458,-486,6,1005.76,47.2,0
"2017-02-19 02:30:21+00",14.0,15.0,,48.7,-436,-455,-4,1005.79,47.3,0
"2017-02-19 02:35:21+00",13.7,15.7,,48.7,-423,-450,0,1005.81,47.3,0
"2017-02-19 02:40:21+00",13.7,15.7,,48.7,-422,-450,0,1005.7,47.4,0
"2017-02-19 02:45:21+00",13.7,15.7,,48.8,-430,-440,1,1005.82,47.4,0
"2017-02-19 02:50:21+00",13.6,15.6,,49,-421,-443,1,1005.81,47.5,0
"2017-02-19 02:55:21+00",13.4,15.4,,49,-423,-424,-4,1005.8,47.6,0
"2017-02-19 03:00:21+00",13.0,15.0,,48.9,-409,-412,0,1005.82,47.6,0
"2017-02-19 03:05:21+00",12.3,14.3,,48.8,-391,-380,-4,1005.81,47.5,0
"2017-02-19 03:10:21+00",11.8,12.8,,49,-370,-363,-5,1005.78,47.6,0
"2017-02-19 03:15:21+00",11.6,13.6,,49.2,-373,-349,-2,1005.73,47.5,0
"2017-02-19 03:20:21+00",11.8,13.8,,49.5,-372,-367,4,1005.84,47.7,0
"2017-02-19 03:25:21+00",11.1,13.1,,49.5,-351,-339,1,1005.83,47.8,0
"2017-02-19 03:30:21+00",11.4,12.4,,49.6,-366,-350,1,1005.92,47.8,0
"2017-02-19 03:35:21+00",11.7,12.7,,49.7,-378,-345,-1,1005.89,47.9,0
"2017-02-19 03:40:21+00",11.1,13.1,,49.6,-353,-340,1,1006.03,47.8,0
"2017-02-19 03:45:21+00",10.5,11.5,,49.4,-335,-325,-3,1006.05,47.6,0
"2017-02-19 03:50:21+00",10.5,11.5,,49.4,-332,-351,0,1006.1,47.4,0
"2017-02-19 03:55:21+00",10.8,11.8,,49.5,-329,-370,-4,1006.15,47.4,0
"2017-02-19 04:00:21+00",10.2,11.2,,49.4,-301,-352,1,1006.13,47.2,0
"2017-02-19 04:05:21+00",10.5,11.5,,49.2,-301,-369,-5,1006.15,47,0
"2017-02-19 04:10:21+00",10.2,11.2,,48.9,-274,-371,-2,1006.19,46.8,0
"2017-02-19 04:15:21+00",9.4,10.4,,48.7,-278,-320,-3,1006.24,46.6,0
"2017-02-19 04:20:21+00",8.6,9.6,,48.7,-268,-282,2,1006.28,46.6,0
"2017-02-19 04:25:21+00",8.7,9.7,,48.8,-275,-260,-1,1006.24,46.6,0
"2017-02-19 04:30:21+00",8.7,9.7,,48.7,-280,-252,2,1006.37,46.5,0
"2017-02-19 04:35:21+00",9.6,10.6,,48.4,-315,-269,0,1006.38,46.4,0
"2017-02-19 04:40:21+00",9.0,11.0,,48.2,-326,-219,1,1006.39,46.4,0
"2017-02-19 04:45:21+00",9.2,10.2,,48.2,-345,-213,10,1006.33,46.2,0
"2017-02-19 04:50:21+00",8.9,8.9,,48.1,-351,-196,4,1006.44,46,0
"2017-02-19 04:55:21+00",10.6,11.6,,48.6,-428,-227,3,1006.45,45.7,0
"2017-02-19 05:00:21+00",10.6,11.6,,49,-437,-139,6,1006.41,45.7,0
"2017-02-19 05:05:21+00",11.0,12.0,,49.4,-469,-58,2,1006.42,45.8,0
"2017-02-19 05:10:21+00",10.5,11.5,,50.1,-437,-90,3,1006.5,45.9,0
"2017-02-19 05:15:21+00",11.0,12.0,,49.8,-459,-96,6,1006.52,46,0
"2017-02-19 05:20:21+00",10.3,12.3,,49.7,-439,-72,0,1006.48,45.9,0
"2017-02-19 05:25:21+00",11.7,12.7,,51.5,-493,-100,7,1006.48,46.2,0
"2017-02-19 05:30:21+00",11.8,12.8,,52.2,-478,-145,14,1006.55,46.4,0
"2017-02-19 05:35:21+00",10.5,11.5,,51.9,-454,-162,18,1006.6,46.8,0
"2017-02-19 05:40:21+00",11.3,14.3,,50.8,-452,-250,9,1006.65,47.1,0
"2017-02-19 05:45:21+00",10.2,11.2,,50.6,-419,-122,8,1006.5,47.5,0
"2017-02-19 05:50:21+00",11.2,12.2,,51,-488,-25,3,1006.46,47.5,0
"2017-02-19 05:55:21+00",10.9,12.9,,53.6,-480,7,13,1006.46,47.8,0
"2017-02-19 06:00:21+00",10.9,11.9,,54.5,-484,38,16,1006.51,48.7,0
"2017-02-19 06:05:21+00",12.2,13.2,,55.1,-538,59,14,1006.59,49,0
"2017-02-19 06:10:21+00",12.1,13.1,,55.6,-529,104,18,1006.61,48.7,0
"2017-02-19 06:15:21+00",13.1,13.1,,56.9,-574,131,19,1006.56,48.8,0
"2017-02-19 06:20:21+00",13.3,14.3,,57.3,-584,108,22,1006.67,49.4,0
"2017-02-19 06:25:21+00",12.0,13.0,,56.4,-525,103,21,1006.71,50,0
"2017-02-19 06:30:21+00",11.8,12.8,,55.7,-518,119,17,1006.63,50.1,0
"2017-02-19 06:35:21+00",12.5,13.5,,55.8,-546,118,17,1006.75,49.9,0
"2017-02-19 06:40:21+00",10.7,11.7,,54.7,-461,127,15,1006.83,49.5,0
"2017-02-19 06:45:21+00",12.2,12.2,,55,-525,125,14,1006.84,49.1,0
"2017-02-19 06:50:21+00",12.5,13.5,,55.2,-533,158,17,1006.88,48.8,0
"2017-02-19 06:55:21+00",13.2,14.2,,55.5,-550,223,23,1006.81,48.8,0
"2017-02-19 07:00:21+00",14.3,15.3,,56.7,-590,257,27,1006.73,49.3,0
"2017-02-19 07:05:21+00",13.2,14.2,,56.8,-505,307,19,1006.56,50.3,0
"2017-02-19 07:10:21+00",14.4,14.4,,57.3,-494,409,26,1006.44,50.1,0
"2017-02-19 07:15:21+00",14.4,14.4,,58,-454,452,33,1006.3,50.7,0
"2017-02-19 07:20:21+00",14.2,15.2,,57.5,-409,479,26,1006.19,51.6,0
"2017-02-19 07:25:21+00",14.0,15.0,,56.9,-360,505,28,1006.04,52,0
"2017-02-19 07:30:21+00",15.3,16.3,,56.5,-298,610,25,1005.76,52.1,0
"2017-02-19 07:35:21+00",17.7,18.7,,56.8,-221,749,21,1005.36,52.3,0
"2017-02-19 07:40:21+00",18.2,20.2,,57,-209,780,18,1005.15,52.9,0
"2017-02-19 07:45:21+00",12.7,14.7,,57.4,-337,458,34,1005.46,53.7,0
"2017-02-19 07:50:21+00",14.3,19.3,,56.1,-532,-357,32,1006.13,53.6,0
"2017-02-19 07:55:21+00",13.3,16.3,,55.4,-578,-248,24,1006.34,52.7,0
"2017-02-19 08:00:21+00",13.9,14.9,,56.9,-604,-298,16,1006.45,52.8,0
"2017-02-19 08:05:21+00",15.2,17.2,,58.2,-601,-335,16,1006.61,53,0
"2017-02-19 08:10:21+00",13.8,14.8,,56.6,-447,-420,1,1006.6,53,0
"2017-02-19 08:15:21+00",14.7,16.7,,55.1,-528,-368,4,1006.74,52.6,0
"2017-02-19 08:20:21+00",16.2,17.2,,56.3,-659,-361,1,1006.77,52.4,0
"2017-02-19 08:25:21+00",14.7,16.7,,55.9,-623,-321,9,1006.81,52.4,0
"2017-02-19 08:30:21+00",14.0,16.0,,55.7,-600,-208,10,1006.93,51.8,0
"2017-02-19 08:35:21+00",13.6,14.6,,56.6,-586,-75,6,1006.85,51.4,0
"2017-02-19 08:40:21+00",12.0,13.0,,56.7,-525,-42,5,1006.98,51.2,0
"2017-02-19 08:45:21+00",10.5,11.5,,56.7,-465,43,15,1006.89,51.3,0
"2017-02-19 08:50:21+00",11.2,11.2,,56.7,-490,88,11,1006.93,51.2,0
"2017-02-19 08:55:21+00",12.4,13.4,,57,-530,168,14,1006.9,50.5,0
"2017-02-19 09:00:21+00",11.6,12.6,,57.4,-463,231,21,1006.8,49.8,0
"2017-02-19 09:05:21+00",10.7,11.7,,56.5,-422,221,15,1006.74,49.2,0
"2017-02-19 09:10:21+00",10.8,11.8,,57.2,-411,247,9,1006.76,48.4,0
"2017-02-19 09:15:21+00",10.8,10.8,,57.6,-423,228,8,1006.84,48.1,0
"2017-02-19 09:20:21+00",9.7,10.7,,56.3,-394,175,9,1006.9,47.9,0
"2017-02-19 09:25:21+00",8.7,8.7,,57.3,-359,148,16,1006.85,48.1,0
"2017-02-19 09:30:21+00",9.7,9.7,,57.6,-407,153,16,1006.76,48.2,0
"2017-02-19 09:35:21+00",10.2,11.2,,57.6,-399,214,17,1006.72,48.3,0
"2017-02-19 09:40:21+00",9.9,9.9,,57.3,-385,211,15,1006.65,48,0
"2017-02-19 09:45:21+00",9.8,9.8,,57.4,-384,203,14,1006.7,47.7,0
"2017-02-19 09:50:21+00",9.5,9.5,,57.5,-371,201,16,1006.7,47.5,0
"2017-02-19 09:55:21+00",9.6,9.6,,57.5,-375,214,17,1006.62,47.5,0
"2017-02-19 10:00:21+00",8.7,9.7,,57.6,-351,166,14,1006.64,47.7,0
"2017-02-19 10:05:21+00",8.3,8.3,,57.5,-331,155,12,1006.64,48,0
"2017-02-19 10:10:21+00",8.6,8.6,,57.6,-357,134,13,1006.64,48.3,0
"2017-02-19 10:15:21+00",9.2,9.2,,57.8,-387,134,15,1006.61,48.6,0
"2017-02-19 10:20:21+00",9.8,9.8,,57.3,-424,126,18,1006.85,49.1,0
"2017-02-19 10:25:21+00",9.4,9.4,,56.9,-404,104,10,1006.84,49.4,0
"2017-02-19 10:30:21+00",8.7,8.7,,56.8,-383,47,6,1006.94,49.7,0
"2017-02-19 10:35:21+00",8.4,8.4,,56.7,-371,26,7,1006.87,49.9,0
"2017-02-19 10:40:21+00",8.4,8.4,,56.9,-364,-23,5,1006.99,50,0
"2017-02-19 10:45:21+00",9.4,9.4,,57.2,-409,-21,7,1007.05,50,0
"2017-02-19 10:50:21+00",9.9,9.9,,57.5,-433,-11,6,1007.22,50,0
"2017-02-19 10:55:21+00",10.4,10.4,,57.5,-452,-26,11,1007.4,49.9,0
"2017-02-19 11:00:21+00",10.2,11.2,,57.2,-440,-38,6,1007.47,49.7,0
"2017-02-19 11:05:21+00",10.4,10.4,,56.8,-421,-101,6,1007.53,49.5,0
"2017-02-19 11:10:21+00",8.3,9.3,,55.8,-370,-171,4,1007.72,49.3,0
"2017-02-19 11:15:21+00",9.1,9.1,,54.2,-345,-199,5,1007.85,49,0
"2017-02-19 11:20:21+00",11.0,12.0,,53.8,-369,-292,5,1008.04,48.6,0
"2017-02-19 11:25:21+00",9.8,10.8,,52.6,-319,-267,2,1008.03,48.5,0
"2017-02-19 11:30:21+00",9.4,10.4,,52,-313,-251,4,1008.13,48.5,0
"2017-02-19 11:35:21+00",9.7,10.7,,51,-314,-267,2,1008.28,48.4,0
"2017-02-19 11:40:21+00",11.4,12.4,,51.3,-367,-331,2,1008.41,48.2,0
"2017-02-19 11:45:21+00",10.9,11.9,,50.9,-352,-322,6,1008.51,48.2,0
"2017-02-19 11:50:21+00",11.6,12.6,,51,-382,-321,2,1008.63,48.2,0
"2017-02-19 11:55:21+00",12.0,13.0,,51.1,-409,-314,4,1008.68,48.2,0
"2017-02-19 12:00:21+00",12.0,13.0,,50.7,-395,-329,-2,1008.71,48.2,0
"2017-02-19 12:05:21+00",10.8,11.8,,50.1,-352,-299,4,1008.87,48.1,0
"2017-02-19 12:10:21+00",10.8,11.8,,49.1,-340,-350,2,1008.95,47.9,0
"2017-02-19 12:15:21+00",12.5,14.5,,49.6,-405,-355,-1,1008.99,47.7,0
"2017-02-19 12:20:21+00",11.9,13.9,,50,-403,-320,12,1009.03,47.8,0
"2017-02-19 12:25:21+00",11.0,12.0,,49.7,-374,-294,10,1009.12,47.7,0
"2017-02-19 12:30:21+00",11.2,12.2,,49.7,-400,-286,14,1009.22,47.7,0
"2017-02-19 12:35:21+00",10.5,11.5,,50.2,-399,-247,14,1009.19,47.8,0
"2017-02-19 12:40:21+00",9.1,10.1,,50.5,-369,-197,6,1009.39,47.7,0
"2017-02-19 12:45:21+00",8.6,10.6,,50.9,-369,-134,4,1009.38,47.7,0
"2017-02-19 12:50:21+00",9.8,10.8,,52.3,-412,-62,1,1009.51,47.7,0
"2017-02-19 12:55:21+00",9.4,9.4,,53.3,-408,-31,-1,1009.5,47.8,0
"2017-02-19 13:00:21+00",9.5,10.5,,54,-413,-17,4,1009.57,47.9,0
"2017-02-19 13:05:21+00",8.6,9.6,,54,-373,-4,5,1009.59,47.9,0
"2017-02-19 13:10:21+00",7.6,7.6,,53.7,-332,-9,5,1009.56,48,0
"2017-02-19 13:15:21+00",7.0,7.0,,53,-300,-5,8,1009.55,48,0
"2017-02-19 13:20:21+00",6.3,6.3,,52.2,-276,13,4,1009.6,48.1,0
"2017-02-19 13:25:21+00",5.4,5.4,,51.6,-226,62,9,1009.6,48.1,0
"2017-02-19 13:30:21+00",6.6,7.6,,51.4,-258,115,11,1009.74,48.3,0
"2017-02-19 13:35:21+00",8.4,9.4,,51.6,-335,154,8,1009.77,48.5,0.3
"2017-02-19 13:40:21+00",8.4,8.4,,52.4,-347,149,13,1009.83,48.7,1.3
"2017-02-19 13:45:21+00",8.2,9.2,,53,-326,157,15,1009.74,48.9,0.5
"2017-02-19 13:50:21+00",8.9,8.9,,53.5,-352,172,14,1009.87,49.3,0.1
"2017-02-19 13:55:21+00",8.9,8.9,,54,-345,176,17,1009.86,49.8,8
"2017-02-19 14:00:21+00",8.8,9.8,,54.4,-345,190,23,1009.93,50.4,17.4
"2017-02-19 14:05:21+00",8.7,9.7,,54.3,-328,205,17,1009.84,51.1,5.7
"2017-02-19 14:10:21+00",8.6,8.6,,55,-330,194,16,1009.9,51.1,0.8
"2017-02-19 14:15:21+00",9.4,9.4,,55.2,-367,202,19,1009.94,51.1,0.3
"2017-02-19 14:20:21+00",9.4,9.4,,55.6,-360,215,20,1009.97,51.1,5.7
"2017-02-19 14:25:21+00",9.1,9.1,,55.8,-344,215,19,1009.97,51.3,9.1
"2017-02-19 14:30:21+00",8.7,9.7,,55.7,-332,196,15,1009.95,51.5,9
"2017-02-19 14:35:21+00",8.1,8.1,,55.3,-303,192,16,1009.96,51.7,10.8
"2017-02-19 14:40:21+00",8.8,9.8,,55.4,-334,193,14,1010.09,51.9,9.8
"2017-02-19 14:45:21+00",8.9,9.9,,55.3,-341,205,15,1010.07,52.2,10.2
"2017-02-19 14:50:21+00",8.6,9.6,,55.5,-316,218,16,1010.03,52.5,12.7
"2017-02-19 14:55:21+00",8.6,9.6,,55.4,-301,230,12,1009.95,52.8,23.3
"2017-02-19 15:00:21+00",8.5,9.5,,56,-312,209,20,1009.95,53,38.1
"2017-02-19 15:05:21+00",7.4,8.4,,56,-270,176,14,1009.87,53.4,54.6
"2017-02-19 15:10:21+00",7.2,8.2,,56.2,-275,165,18,1009.9,53.8,53.1
"2017-02-19 15:15:21+00",6.8,7.8,,56.4,-271,137,16,1009.96,54.4,55.3
"2017-02-19 15:20:21+00",7.4,8.4,,56.5,-309,118,18,1010.02,54.5,43.8
"2017-02-19 15:25:21+00",7.4,8.4,,56.7,-306,106,15,1009.92,54.4,50.1
"2017-02-19 15:30:21+00",7.7,8.7,,56.6,-328,89,18,1010.07,54.4,49.4
"2017-02-19 15:35:21+00",7.1,8.1,,56.7,-308,-15,15,1009.97,54.6,65.1
"2017-02-19 15:40:21+00",7.9,8.9,,57.2,-325,-96,11,1009.97,55.2,73.5
"2017-02-19 15:45:21+00",8.9,9.9,,57.1,-375,-186,5,1009.92,55.8,86.1
"2017-02-19 15:50:21+00",9.1,10.1,,56.5,-382,-103,12,1009.98,56.1,83.9
"2017-02-19 15:55:21+00",8.5,9.5,,57,-367,-14,16,1009.89,56.3,98.9
"2017-02-19 16:00:21+00",7.9,9.9,,57.7,-349,10,22,1009.91,56.6,106.1
"2017-02-19 16:05:21+00",10.0,11.0,,58.2,-432,116,24,1009.93,56.9,119.9
"2017-02-19 16:10:21+00",10.0,11.0,,58.5,-433,121,27,1009.94,56.7,115.7
"2017-02-19 16:15:21+00",10.2,11.2,,58.4,-445,118,27,1009.92,56.4,93.4
"2017-02-19 16:20:21+00",10.3,11.3,,58.1,-444,95,19,1009.89,56.3,67.6
"2017-02-19 16:25:21+00",9.7,10.7,,58,-423,76,18,1009.96,56,99.3
"2017-02-19 16:30:21+00",9.5,10.5,,58.1,-413,100,16,1010.02,56.1,113
"2017-02-19 16:35:21+00",10.2,11.2,,58.7,-444,113,25,1009.85,56.7,158.2
"2017-02-19 16:40:21+00",9.4,10.4,,59.5,-405,89,22,1009.86,57.3,345
"2017-02-19 16:45:21+00",9.4,10.4,,60.2,-407,103,25,1009.67,58.6,261.2
"2017-02-19 16:50:21+00",9.4,10.4,,60.5,-407,114,27,1009.55,59,335.5
"2017-02-19 16:55:21+00",9.3,10.3,,61,-403,72,9,1009.39,60.1,380.9
"2017-02-19 17:00:21+00",8.7,10.7,,61.6,-384,87,34,1009.38,61.3,394.4
"2017-02-19 17:05:21+00",9.3,10.3,,62,-411,15,41,1009.24,62,326.1
"2017-02-19 17:10:21+00",9.3,11.3,,62.5,-407,65,24,1009.11,62.5,375.4
"2017-02-19 17:15:21+00",10.2,11.2,,62.8,-448,55,12,1009.02,63,401.8
"2017-02-19 17:20:21+00",9.3,10.3,,63,-400,-33,2,1008.82,63.4,352.7
"2017-02-19 17:25:21+00",7.1,8.1,,63.1,-266,-172,45,1008.79,64.4,357.9
"2017-02-19 17:30:21+00",7.6,8.6,,63.2,-311,-128,-9,1008.75,65.7,339
"2017-02-19 17:35:21+00",7.5,8.5,,63.4,-259,-194,2,1008.73,66.8,352.9
"2017-02-19 17:40:21+00",6.9,8.9,,63.7,-265,-165,25,1008.64,67.5,338.9
"2017-02-19 17:45:21+00",8.0,10.0,,64.1,-324,-170,36,1008.51,68.2,348.6
"2017-02-19 17:50:21+00",8.0,10.0,,63.8,-322,-147,34,1008.55,68.6,338.5
"2017-02-19 17:55:21+00",9.2,11.2,,63.6,-332,-230,1,1008.51,68.4,338.6
"2017-02-19 18:00:21+00",8.9,9.9,,64,-321,-224,30,1008.57,68.7,380.2
"2017-02-19 18:05:21+00",8.5,9.5,,64.4,-325,-187,7,1008.53,69.1,409.8
"2017-02-19 18:10:21+00",8.1,9.1,,64.6,-338,-137,16,1008.45,69.3,162.5
"2017-02-19 18:15:21+00",7.0,8.0,,64.8,-292,-95,23,1008.55,68.5,415.9
"2017-02-19 18:20:21+00",7.7,9.7,,65.1,-297,-173,19,1008.53,68.1,145.1
"2017-02-19 18:25:21+00",6.9,8.9,,64.8,-261,-170,33,1008.6,67.9,104.2
"2017-02-19 18:30:21+00",7.0,8.0,,64.3,-260,-171,17,1008.68,67.1,83.9
"2017-02-19 18:35:21+00",6.3,7.3,,64.4,-267,-124,17,1008.58,66.6,111.5
"2017-02-19 18:40:21+00",7.8,9.8,,64.4,-341,27,17,1008.56,66,334.3
"2017-02-19 18:45:21+00",9.0,10.0,,64.5,-383,109,26,1008.53,65.2,127.8
"2017-02-19 18:50:21+00",8.3,10.3,,63.6,-326,169,26,1008.58,63.6,81.7
"2017-02-19 18:55:21+00",7.4,8.4,,63.5,-286,148,49,1008.67,63.3,102.2
"2017-02-19 19:00:21+00",7.6,8.6,,63.3,-308,142,22,1008.7,63.2,200
"2017-02-19 19:05:21+00",7.7,9.7,,63.4,-290,174,28,1008.56,62.8,298.1
"2017-02-19 19:10:21+00",9.2,11.2,,63.7,-340,243,32,1008.52,63.7,298.1
"2017-02-19 19:15:21+00",8.7,10.7,,63.8,-312,227,31,1008.49,64.5,330.1
"2017-02-19 19:20:21+00",10.1,12.1,,63.9,-371,256,32,1008.52,64.8,219.3
"2017-02-19 19:25:21+00",13.0,14.0,,64.8,-399,431,32,1008.63,64.6,301.2
"2017-02-19 19:30:21+00",16.4,17.4,,64,-511,530,44,1008.75,63.4,37.4
"2017-02-19 19:35:21+00",14.3,16.3,,63.9,-466,442,41,1008.86,62.6,251.7
"2017-02-19 19:40:21+00",15.7,16.7,,64.2,-542,456,40,1008.85,63.1,280.3
"2017-02-19 19:45:21+00",13.9,15.9,,64.9,-483,391,40,1008.84,64.3,265.7
"2017-02-19 19:50:21+00",11.3,12.3,,64.2,-408,287,27,1008.98,64.6,254.1
"2017-02-19 19:55:21+00",11.9,12.9,,64.1,-418,322,28,1009.02,64.6,244.4
"2017-02-19 20:00:21+00",10.1,12.1,,63.9,-343,288,31,1009.07,64.6,238
"2017-02-19 20:05:21+00",9.5,10.5,,64.2,-343,251,36,1009.17,64.7,231.2
"2017-02-19 20:10:21+00",8.4,9.4,,63.9,-368,78,17,1009.2,64.8,222.4
"2017-02-19 20:15:21+00",9.5,11.5,,64.4,-410,15,35,1009.26,64.4,216.4
"2017-02-19 20:20:21+00",8.0,9.0,,65.7,-348,54,20,1009.31,64.9,210.2
"2017-02-19 20:25:21+00",8.7,9.7,,66.2,-381,78,17,1009.33,65.5,203.9
"2017-02-19 20:30:21+00",10.7,11.7,,65.8,-465,109,30,1009.34,65.6,192.2
"2017-02-19 20:35:21+00",9.9,10.9,,64.3,-432,107,21,1009.32,64.3,184
"2017-02-19 20:40:21+00",9.0,11.0,,64,-387,114,20,1009.45,63.5,181
"2017-02-19 20:45:21+00",10.0,11.0,,64.9,-425,140,34,1009.45,63.2,166.9
"2017-02-19 20:50:21+00",11.8,12.8,,64.6,-516,150,29,1009.46,63.1,158.6
"2017-02-19 20:55:21+00",13.7,14.7,,64.9,-597,184,38,1009.62,62.3,149.2
"2017-02-19 21:00:21+00",13.2,14.2,,65,-560,189,34,1009.58,61.9,140.2
"2017-02-19 21:05:21+00",11.3,12.3,,65.1,-475,186,28,1009.67,61.9,131.6
"2017-02-19 21:10:21+00",12.5,14.5,,64.5,-534,176,28,1009.7,61.7,118.1
"2017-02-19 21:15:21+00",13.6,14.6,,64.9,-571,210,34,1009.78,61.6,111.7
"2017-02-19 21:20:21+00",13.7,14.7,,65.3,-555,277,34,1009.74,62.2,96.2
"2017-02-19 21:25:21+00",12.6,13.6,,65.7,-492,267,27,1009.85,63.6,82.9
"2017-02-19 21:30:21+00",12.9,14.9,,65,-480,337,32,1009.81,63.7,72.5
"2017-02-19 21:35:21+00",11.3,12.3,,64.4,-440,251,27,1009.7,63.2,64.4
"2017-02-19 21:40:21+00",11.5,12.5,,63.5,-435,266,29,1009.85,62.7,55
"2017-02-19 21:45:21+00",11.7,12.7,,63.4,-459,253,24,1009.82,62.1,43.8
"2017-02-19 21:50:21+00",11.0,12.0,,65.4,-453,201,27,1009.85,61.8,0
"2017-02-19 21:55:21+00",12.1,13.1,,65.3,-491,238,31,1009.96,60.7,0
"2017-02-19 22:00:21+00",12.2,13.2,,64.7,-501,239,30,1010.03,60,0
"2017-02-19 22:05:21+00",15.0,16.0,,63.1,-632,247,35,1010.13,59.9,0
"2017-02-19 22:10:21+00",13.2,14.2,,63.9,-565,175,29,1010.15,58.5,3.4
"2017-02-19 22:15:21+00",11.1,12.1,,62.5,-471,161,25,1010.22,57.4,0
"2017-02-19 22:20:21+00",12.2,12.2,,63.2,-531,142,21,1010.28,56.7,0
"2017-02-19 22:25:21+00",12.0,13.0,,64.5,-523,146,23,1010.49,56.1,0
"2017-02-19 22:30:21+00",11.6,12.6,,64.4,-478,204,23,1010.6,55.3,0
"2017-02-19 22:35:21+00",12.0,13.0,,63.4,-482,242,24,1010.77,54.8,0
"2017-02-19 22:40:21+00",12.9,12.9,,63.2,-536,230,27,1010.82,54.5,0
"2017-02-19 22:45:21+00",11.6,12.6,,62.4,-481,200,19,1010.92,53.9,0
"2017-02-19 22:50:21+00",12.2,12.2,,62.7,-485,248,22,1011.07,53.2,0
"2017-02-19 22:55:21+00",10.3,11.3,,62.3,-423,184,17,1011.15,52.6,0
"2017-02-19 23:00:21+00",10.1,11.1,,62.6,-430,162,24,1011.27,52.1,0
"2017-02-19 23:05:21+00",9.4,9.4,,61.7,-401,134,18,1011.22,51.7,0
"2017-02-19 23:10:21+00",9.9,9.9,,63,-416,170,23,1011.32,51.9,0
"2017-02-19 23:15:21+00",10.4,11.4,,63.2,-445,150,21,1011.34,51.9,0
"2017-02-19 23:20:21+00",10.3,10.3,,63.3,-434,165,21,1011.42,51.5,0
"2017-02-19 23:25:21+00",9.2,10.2,,62.9,-371,186,22,1011.46,51.3,0
"2017-02-19 23:30:21+00",9.3,10.3,,62.6,-392,141,16,1011.53,51.3,0
"2017-02-19 23:35:21+00",9.5,9.5,,62.7,-413,112,19,1011.57,51,0
"2017-02-19 23:40:21+00",9.3,10.3,,62.2,-408,70,19,1011.59,50.5,0
"2017-02-19 23:45:21+00",9.9,9.9,,61.5,-439,15,11,1011.52,50.3,0
"2017-02-19 23:50:21+00",9.5,9.5,,61.5,-415,-28,8,1011.52,50.3,0
"2017-02-19 23:55:21+00",10.1,10.1,,62.1,-443,32,7,1011.51,50.2,0
